This is the latest recevied weather packets stored in our database for station/object WZ9ZZZ-1. If no packets are shown the sender has not sent any weather packets the latest 10 day(s).
| Time | Temp. | Humidity | Pressure | Rain* | Wind** | Luminosity | Snow |
|---|---|---|---|---|---|---|---|
| 1777991289 | 24.44° C | 87% | 1013.4 hPa | 0 mm | - | 21 W/m² | - |
| 1777990986 | 24.44° C | 87% | 1013.3 hPa | 0 mm | - | 24 W/m² | - |
| 1777990683 | 24.44° C | 87% | 1013.3 hPa | 0 mm | - | 41 W/m² | - |
| 1777990381 | 24.44° C | 87% | 1013.3 hPa | 0 mm | - | 41 W/m² | - |
| 1777990076 | 24.44° C | 87% | 1013.3 hPa | 0 mm | - | 45 W/m² | - |
| 1777989773 | 24.44° C | 87% | 1013.5 hPa | 0 mm | - | 32 W/m² | - |
| 1777989470 | 24.44° C | 87% | 1013.4 hPa | 0 mm | - | 32 W/m² | - |
| 1777989166 | 24.44° C | 87% | 1013.1 hPa | 0 mm | - | 30 W/m² | - |
| 1777988862 | 24.44° C | 87% | 1013 hPa | 0 mm | - | 45 W/m² | - |
| 1777988560 | 24.44° C | 87% | 1013.2 hPa | 0 mm | - | 69 W/m² | - |
| 1777988256 | 24.44° C | 87% | 1013.2 hPa | 0 mm | - | 90 W/m² | - |
| 1777987953 | 24.44° C | 87% | 1013 hPa | 0 mm | - | 75 W/m² | - |
| 1777987648 | 24.44° C | 87% | 1012.9 hPa | 0 mm | - | 77 W/m² | - |
| 1777987346 | 24.44° C | 87% | 1013.1 hPa | 0 mm | - | 98 W/m² | - |
| 1777987043 | 24.44° C | 87% | 1013.2 hPa | 0 mm | - | 98 W/m² | - |
| 1777986741 | 24.44° C | 87% | 1013 hPa | 0 mm | - | 131 W/m² | - |
| 1777986438 | 24.44° C | 88% | 1013 hPa | 0 mm | - | 138 W/m² | - |
| 1777986137 | 23.89° C | 88% | 1012.9 hPa | 0 mm | - | 141 W/m² | - |
| 1777985833 | 23.89° C | 88% | 1013 hPa | 0 mm | - | 103 W/m² | - |
| 1777985530 | 23.89° C | 89% | 1013.1 hPa | 0 mm | - | 85 W/m² | - |
| 1777985227 | 23.89° C | 89% | 1013.1 hPa | 0 mm | - | 63 W/m² | - |
| 1777984923 | 23.89° C | 89% | 1012.7 hPa | 0 mm | - | 25 W/m² | - |
| 1777984619 | 23.89° C | 89% | 1012.8 hPa | 0 mm | - | 21 W/m² | - |
| 1777984316 | 23.89° C | 89% | 1012.6 hPa | 0 mm | - | 12 W/m² | - |
| 1777984013 | 23.33° C | 89% | 1012.4 hPa | 0 mm | - | 13 W/m² | - |
* Rain latest hour (hover to see other rain measurements)
** Current wind speed in m/s (hover to see current wind gust speed)